Swanton, OH

9:44 PM EST on February 26, 2017 (GMT -0500)
Toledo Express

Weather History for KTOL - May, 2013

Change the Weather History Date:

Wednesday, May 8, 2013

  Actual Average Record
Temperature  
Mean Temperature 66 °F 57 °F  
Max Temperature 78 °F 69 °F 88 °F (1979)
Min Temperature 53 °F 46 °F 28 °F (1976)
Degree Days  
Heating Degree Days 0 9  
Month to date heating degree days 17 76  
Since 1 July heating degree days 5994 5978  
Cooling Degree Days 1 1  
Month to date cooling degree days 4 5  
Year to date cooling degree days 4 13  
Growing Degree Days 16 (Base 50)    
Moisture  
Dew Point 47 °F    
Average Humidity 58    
Maximum Humidity 83    
Minimum Humidity 32    
Precipitation  
Precipitation T in 0.11 in 1.00 in (1974)
Month to date precipitation T 0.87  
Year to date precipitation 11.89 10.66  
Snow  
Snow 0.00 in 0.00 in - ()
Month to date snowfall 0.0 0.1  
Since 1 July snowfall 22.4 37.6  
Snow Depth 0.00 in    
Sea Level Pressure  
Sea Level Pressure 29.98 in    
Wind  
Wind Speed 4 mph (ENE)    
Max Wind Speed 17 mph    
Max Gust Speed 22 mph    
Visibility 10 miles    
Events      
T = Trace of Precipitation, MM = Missing Value Source: NWS Daily Summary

Daily Weather History Graph

Daily Weather History Graph

Search for Another Location

Airport or City:

Trip Planner

Search our weather history database for the weather conditions in past years. The results will help you decide how hot, cold, wet, or windy it might be!

Date:

Astronomy

May. 08, 2013 Rise Set
Actual Time 6:23 AM EDT 8:40 PM EDT
Civil Twilight 5:52 AM EDT 9:11 PM EDT
Nautical Twilight 5:14 AM EDT 9:50 PM EDT
Astronomical Twilight 4:31 AM EDT 10:32 PM EDT
Moon 5:31 AM EDT (5/8) 7:37 PM EDT (5/8)
Length of Visible Light 15h 19m
Length of Day
14h 17m
Waning Crescent, 2% of the Moon is Illuminated
May 8
Waning Crescent
May 9
New
May 18
First Quarter
May 25
Full
May 31
Last Quarter

Hourly Weather History & Observations

Time (EDT) Temp. Dew Point Humidity Pressure Visibility Wind Dir Wind Speed Gust Speed Precip Events Conditions
12:52 AM 57.9 °F 48.9 °F 72% 30.01 in 10.0 mi Calm Calm - N/A   Overcast
1:52 AM 55.9 °F 48.9 °F 77% 29.99 in 10.0 mi Calm Calm - N/A   Partly Cloudy
2:52 AM 55.0 °F 48.0 °F 77% 29.98 in 10.0 mi Calm Calm - N/A   Clear
3:52 AM 54.0 °F 48.0 °F 80% 29.98 in 10.0 mi Calm Calm - N/A   Scattered Clouds
4:52 AM 55.0 °F 48.0 °F 77% 29.97 in 10.0 mi Calm Calm - N/A   Overcast
5:52 AM 55.9 °F 46.9 °F 72% 29.97 in 10.0 mi Calm Calm - N/A   Overcast
6:52 AM 57.0 °F 46.0 °F 67% 29.98 in 10.0 mi Calm Calm - N/A   Overcast
7:52 AM 59.0 °F 45.0 °F 60% 29.99 in 10.0 mi North 3.5 mph - N/A   Overcast
8:52 AM 62.1 °F 46.0 °F 56% 30.00 in 10.0 mi Variable 4.6 mph - N/A   Overcast
9:52 AM 64.9 °F 44.1 °F 47% 30.01 in 10.0 mi ENE 4.6 mph - N/A   Clear
10:52 AM 71.1 °F 44.1 °F 38% 30.00 in 10.0 mi NNE 5.8 mph - N/A   Partly Cloudy
11:52 AM 71.1 °F 46.9 °F 42% 30.00 in 10.0 mi East 4.6 mph - N/A   Overcast
12:52 PM 77.0 °F 46.0 °F 33% 29.98 in 10.0 mi ENE 9.2 mph - N/A   Clear
1:52 PM 77.0 °F 46.9 °F 34% 29.96 in 10.0 mi NE 6.9 mph - N/A   Clear
2:52 PM 78.1 °F 46.9 °F 33% 29.96 in 10.0 mi ENE 11.5 mph - N/A   Clear
3:52 PM 73.0 °F 46.9 °F 39% 29.95 in 10.0 mi ESE 8.1 mph - N/A   Mostly Cloudy
4:52 PM 73.9 °F 46.0 °F 37% 29.94 in 10.0 mi ESE 5.8 mph - N/A   Scattered Clouds
5:52 PM 72.0 °F 46.0 °F 40% 29.96 in 10.0 mi NNE 13.8 mph - N/A   Mostly Cloudy
6:52 PM 72.0 °F 46.9 °F 41% 29.95 in 10.0 mi ENE 3.5 mph - 0.00 in   Overcast
7:52 PM 69.1 °F 48.9 °F 49% 29.95 in 10.0 mi ENE 4.6 mph - N/A   Partly Cloudy
8:52 PM 68.0 °F 48.9 °F 50% 29.96 in 10.0 mi SE 3.5 mph - N/A   Scattered Clouds
9:52 PM 64.9 °F 50.0 °F 58% 29.96 in 10.0 mi Calm Calm - N/A   Partly Cloudy
10:52 PM 64.0 °F 51.1 °F 63% 29.98 in 10.0 mi West 5.8 mph - N/A   Overcast
11:52 PM 64.9 °F 50.0 °F 58% 29.97 in 10.0 mi Calm Calm - N/A   Overcast